Regional Weather Roundup
Issued by NWS Green Bay, WI

Home | Current Version | Previous Version | Text Only | Print | Product List | Glossary On
Versions: 1 2 3 4 5 6 7 8 9 10 11 12 13 14 15 16 17 18 19 20 21 22 23 24 25 26 27 28 29 30 31 32 33 34 35 36 37 38 39 40 41 42 43 44 45 46 47 48 49 50
000
ASUS43 KGRB 260200
RWRGRB

NORTH-CENTRAL AND NORTHEAST WISCONSIN REGIONAL WEATHER ROUNDUP
NATIONAL WEATHER SERVICE GREEN BAY WI
900 PM CDT THU AUG 25 2016

WIZ005-009-010>012-018-019-260300-
NORTH CENTRAL WISCONSIN

CITY           SKY/WX    TMP DP  RH WIND       PRES   REMARKS
IRONWOOD       CLEAR     60  53  77 W8        30.03R
MANITOWISH WTR NOT AVBL
ARBOR VITAE    NOT AVBL
EAGLE RIVER    NOT AVBL
LAND O LAKES   NOT AVBL
RHINELANDER    PTCLDY    62  55  77 W6        30.05R
PHILLIPS       CLEAR     60  54  81 CALM      30.05R
ANTIGO         NOT AVBL
TOMAHAWK       NOT AVBL
MERRILL        NOT AVBL
$$

WIZ013-073-260300-
NORTHEAST WISCONSIN

CITY           SKY/WX    TMP DP  RH WIND       PRES   REMARKS
IRON MOUNTAIN  CLEAR     68  52  56 W8        29.98R
MARINETTE      CLEAR    N/A N/A N/A W3          N/A
$$

WIZ017-030-035>037-045-260300-
CENTRAL WISCONSIN

CITY           SKY/WX    TMP DP  RH WIND       PRES   REMARKS
MEDFORD        NOT AVBL
WAUSAU         CLEAR     65  55  70 W8        30.04R
MOSINEE        CLEAR     64  55  72 W7        30.06R
MARSHFIELD     CLEAR     62  54  74 W6        30.06R
WISC RAPIDS    CLEAR     66  60  81 W5        30.07R
STEVENS POINT  NOT AVBL
WAUPACA        NOT AVBL
SHAWANO        NOT AVBL
CLINTONVILLE   CLEAR     68  57  68 W6        30.02R
WAUTOMA        CLEAR     66  61  84 W5        30.06R
$$

WIZ038-039-048-051-260300-
FOX VALLEY

CITY           SKY/WX    TMP DP  RH WIND       PRES   REMARKS
NWS GREEN BAY  CLEAR     68  62  81 SW3       30.01R
APPLETON       PTCLDY    70  57  64 SW8       30.01R
OSHKOSH        CLEAR     69  61  75 W3        30.03R
FOND DU LAC    CLEAR     69  62  78 SW6       30.04R
$$

WIZ022-050-052-260300-
EAST CENTRAL WISCONSIN

CITY           SKY/WX    TMP DP  RH WIND       PRES   REMARKS
EPHRAIM        NOT AVBL
WASHINGTON ISL NOT AVBL
STURGEON BAY   CLEAR     70  61  73 SW8       30.00R
MANITOWOC      NOT AVBL
SHEBOYGAN      CLEAR     66  59  78 W7        30.03R
$$

LMZ563-521-522-541>543-260300-
LAKESHORE

STATION/POSITION TIME  TEMP    WIND        PRES    VSBY  WAVE
                       AIR SEA DIR/SP/G                  HT/PER
                 (UTC) (F)     (DEG/KT/KT) (MB)    (MI)  (FT/S)
SHEBOYGAN LKSHOR 0100   75     240/  6/  7 1015.5R
KEWAUNEE LKSHORE 0100   74     220/  4/  6 1014.9R
NORTHPORT PIER   0100   73     250/  3/  5 1013.9R
N MID LAKE BUOY  0050   72 70  220/ 14/ 16 1013.0R         2/ 4
CHAMBERS ISLAND  0100   74     210/  5/ 10 1014.2R
MENOMINEE LKSHOR 0100   75     240/  9/ 13 1013.7R
$$




USA.gov is the U.S. government's official web portal to all federal, state and local government web resources and services.